TimePDT,TemperatureF,Dew PointF,Humidity,Sea Level PressureIn,VisibilityMPH,Wind Direction,Wind SpeedMPH,Gust SpeedMPH,PrecipitationIn,Events,Conditions,WindDirDegrees,DateUTC
12:53 AM,48.0,37.9,68,29.64,10.0,SE,11.5,-,0.00,,Overcast,140,2012-03-29 07:53:00
1:53 AM,48.9,37.9,66,29.62,10.0,SSE,16.1,27.6,0.00,Rain,Light Rain,160,2012-03-29 08:53:00
2:53 AM,48.0,39.9,74,29.61,10.0,SSE,11.5,19.6,0.02,Rain,Light Rain,160,2012-03-29 09:53:00
3:53 AM,46.9,41.0,80,29.60,10.0,SSW,6.9,-,0.05,Rain,Light Rain,200,2012-03-29 10:53:00
4:53 AM,46.0,41.0,83,29.60,10.0,SSE,6.9,-,0.04,Rain,Light Rain,160,2012-03-29 11:53:00
5:53 AM,46.0,42.1,86,29.62,10.0,South,11.5,-,0.02,Rain,Light Rain,170,2012-03-29 12:53:00
6:53 AM,46.0,42.1,86,29.63,10.0,SSE,11.5,-,0.08,Rain,Light Rain,160,2012-03-29 13:53:00
7:53 AM,45.0,43.0,93,29.62,7.0,SE,15.0,-,0.06,Rain,Light Rain,140,2012-03-29 14:53:00
8:53 AM,46.0,43.0,89,29.62,8.0,SSE,11.5,-,0.08,Rain,Light Rain,160,2012-03-29 15:53:00
9:53 AM,46.9,43.0,86,29.62,7.0,South,11.5,-,0.07,Rain,Light Rain,170,2012-03-29 16:53:00
10:53 AM,46.9,43.0,86,29.62,6.0,SSE,10.4,-,0.09,Rain,Light Rain,160,2012-03-29 17:53:00
11:53 AM,46.9,44.1,90,29.60,7.0,SSE,8.1,-,0.08,Rain,Light Rain,150,2012-03-29 18:53:00
12:53 PM,48.0,45.0,89,29.57,6.0,SE,10.4,-,0.06,Rain,Light Rain,140,2012-03-29 19:53:00
1:22 PM,48.2,44.6,87,29.56,5.0,SSE,10.4,-,0.03,Rain,Light Rain,150,2012-03-29 20:22:00
1:53 PM,48.0,46.0,93,29.54,4.0,SSE,9.2,-,0.08,Rain,Light Rain,150,2012-03-29 20:53:00
2:01 PM,48.2,44.6,87,29.54,4.0,SE,10.4,-,0.01,Rain,Light Rain,130,2012-03-29 21:01:00
2:16 PM,48.2,44.6,87,29.53,4.0,SE,9.2,-,0.04,Rain,Light Rain,130,2012-03-29 21:16:00
2:23 PM,48.2,44.6,87,29.52,5.0,SE,6.9,-,0.05,Rain,Light Rain,130,2012-03-29 21:23:00
2:53 PM,48.0,46.0,93,29.50,6.0,SE,8.1,-,0.09,Rain,Light Rain,130,2012-03-29 21:53:00
3:42 PM,46.4,44.6,93,29.47,6.0,Calm,Calm,-,0.09,Rain,Light Rain,0,2012-03-29 22:42:00
3:47 PM,46.4,44.6,93,29.47,6.0,Calm,Calm,-,0.10,Rain,Light Rain,0,2012-03-29 22:47:00
3:53 PM,48.0,45.0,89,29.47,5.0,Calm,Calm,-,0.11,Rain,Light Rain,0,2012-03-29 22:53:00
4:08 PM,46.4,44.6,93,29.46,4.0,Calm,Calm,-,0.02,Rain,Light Rain,0,2012-03-29 23:08:00
4:20 PM,46.4,44.6,93,29.45,3.0,NW,4.6,-,0.05,Rain,Light Rain,310,2012-03-29 23:20:00
4:53 PM,45.0,43.0,93,29.45,5.0,Calm,Calm,-,0.10,Rain,Light Rain,0,2012-03-29 23:53:00
5:02 PM,44.6,42.8,93,29.45,7.0,Calm,Calm,-,0.01,Rain,Light Rain,0,2012-03-30 00:02:00
5:39 PM,44.6,42.8,93,29.44,6.0,Variable,4.6,-,0.06,Rain,Light Rain,0,2012-03-30 00:39:00
5:53 PM,45.0,43.0,93,29.43,8.0,WNW,3.5,-,0.07,Rain,Light Rain,300,2012-03-30 00:53:00
6:53 PM,44.1,42.1,93,29.45,10.0,WSW,5.8,-,0.02,Rain,Light Rain,240,2012-03-30 01:53:00
6:56 PM,44.6,42.8,93,29.45,10.0,Variable,6.9,-,0.00,Rain,Light Rain,0,2012-03-30 01:56:00
7:42 PM,44.6,42.8,93,29.46,5.0,SSE,9.2,-,0.02,,Overcast,160,2012-03-30 02:42:00
7:53 PM,45.0,42.1,90,29.47,5.0,South,8.1,-,0.02,,Overcast,170,2012-03-30 02:53:00
8:53 PM,45.0,42.1,90,29.49,10.0,South,9.2,17.3,0.01,,Overcast,170,2012-03-30 03:53:00
9:53 PM,44.1,42.1,93,29.49,10.0,SE,10.4,-,0.00,,Mostly Cloudy,140,2012-03-30 04:53:00
10:22 PM,44.6,42.8,93,29.49,10.0,SSE,6.9,-,N/A,,Mostly Cloudy,150,2012-03-30 05:22:00
10:53 PM,45.0,43.0,93,29.49,10.0,South,4.6,-,N/A,,Mostly Cloudy,170,2012-03-30 05:53:00
11:02 PM,44.6,42.8,93,29.49,10.0,South,6.9,-,N/A,,Mostly Cloudy,170,2012-03-30 06:02:00
11:34 PM,46.4,44.6,93,29.49,10.0,SSE,6.9,-,N/A,,Overcast,160,2012-03-30 06:34:00
11:41 PM,46.4,44.6,93,29.50,10.0,South,6.9,-,N/A,,Overcast,170,2012-03-30 06:41:00
11:53 PM,46.0,44.1,93,29.49,9.0,SE,9.2,-,N/A,,Overcast,140,2012-03-30 06:53:00